Temperature
23 20 20 20 21 21 21 21 20 21 21 21 20 20 21 22 22 22 23 24 25 25 26 26 26 26 25 25 24 23 23 22 22 21 21 20 20 20 20 19 19 19 18 18
20 20 21 22 22 22 21 20 20 20 20 21 20 19 20 20 21 22 23 23 24 25 26 26 26 26 25 25 24 24 23 22 22 21 21 21 20 20 19 19 19 19 18 18
21 21 23 23 22 22 21 20 20 20 20 20 19 18 19 20 21 21 22 23 24 24 25 25 25 25 25 25 24 24 23 22 22 21 21 20 20 19 19 19 19 19 18 18
21 22 23 22 22 22 20 21 20 20 18 17 18 16 17 18 18 19 20 21 23 24 24 24 24 24 24 24 24 23 23 22 21 21 20 20 20 19 19 19 19 18 18 18
21 22 21 21 21 21 20 20 20 19 18 17 17 16 17 17 17 18 19 20 22 23 23 23 24 24 23 23 23 23 22 22 21 21 20 20 20 19 19 19 18 18 18 18
20 21 21 21 21 21 20 19 18 16 15 16 17 16 16 16 16 17 18 19 20 21 22 23 23 23 22 22 22 22 22 21 21 20 20 20 19 19 19 18 18 18 18 18
19 20 21 21 20 19 18 17 16 16 15 15 17 17 16 16 16 16 16 17 18 20 20 21 22 22 22 22 22 22 22 21 21 20 20 20 19 19 19 18 18 18 17 17
17 17 19 20 19 18 18 17 16 15 15 15 17 17 16 16 16 16 16 16 16 17 19 19 20 21 21 21 21 22 22 21 21 20 20 19 19 19 18 18 18 17 17 17
16 16 18 19 19 18 17 16 16 15 15 15 16 16 16 16 16 16 15 15 15 16 17 18 19 20 20 21 21 21 21 21 21 20 20 19 19 19 18 18 18 17 17 17
16 15 16 18 18 17 16 15 13 14 15 15 15 15 14 14 14 15 15 15 15 15 16 17 17 19 20 20 21 21 21 21 21 20 20 20 19 19 18 18 18 17 17 17
15 14 14 15 14 14 14 14 13 13 13 14 14 14 14 13 14 14 14 15 15 15 16 16 17 18 19 20 20 20 20 20 20 20 20 19 19 19 18 18 18 17 17 17
14 12 12 13 15 16 14 13 13 13 13 13 13 13 14 13 14 14 14 14 15 16 16 17 17 18 19 19 20 20 20 20 20 20 19 19 19 19 18 18 18 17 17 16
15 12 11 12 13 14 13 13 13 12 12 13 13 13 14 13 14 14 14 14 15 16 16 17 18 18 19 19 20 20 20 20 19 19 19 19 19 18 18 18 17 17 17 16
15 12 12 12 12 12 12 12 13 12 12 13 13 13 13 13 14 14 14 15 15 15 16 17 18 18 19 19 19 19 19 19 19 19 19 18 18 18 18 17 17 17 17 16
13 13 13 13 12 12 12 12 13 13 13 13 12 12 12 13 13 14 14 14 15 15 15 16 17 18 18 18 18 19 19 19 18 18 18 18 17 17 17 17 17 17 17 16
12 12 13 12 12 12 12 11 12 12 12 12 12 12 12 13 13 13 13 14 14 14 15 16 16 17 17 17 18 18 18 18 18 18 18 17 17 17 17 17 16 16 16 16
11 12 12 11 12 12 11 10 11 11 11 11 11 11 12 12 13 13 13 13 14 14 15 16 16 16 16 16 17 17 17 17 17 17 17 16 16 16 16 16 16 16 16 16
12 11 10 10 11 11 10 11 11 11 11 11 11 11 11 11 12 13 13 13 14 15 15 15 16 16 16 16 16 16 16 16 16 16 15 15 15 15 15 16 15 15 15 15
11 11 10 10 10 11 11 11 11 11 11 10 10 11 11 11 13 14 14 13 14 15 15 15 16 16 16 16 15 16 15 15 15 14 14 14 14 14 14 15 15 15 14 15
11 9 9 9 10 10 10 11 12 11 10 10 10 10 10 10 10 11 13 14 14 15 15 15 15 15 15 15 15 15 14 14 13 13 13 13 13 13 13 13 13 13 14 14
10 9 9 9 10 10 11 11 11 10 9 10 10 10 10 9 10 11 13 14 15 15 15 15 15 15 15 15 14 14 13 13 13 12 12 12 12 12 12 12 12 12 13 13
10 9 9 9 9 10 11 11 10 10 11 10 10 10 10 10 11 12 13 14 15 15 15 15 15 15 15 15 14 14 13 13 13 12 12 12 12 12 12 12 12 12 12 12
10 10 9 9 9 11 12 11 11 11 11 11 11 11 11 11 12 13 13 14 15 15 15 15 15 15 15 15 14 14 13 13 13 13 12 12 12 12 12 12 12 12 12 12
11 12 10 10 11 12 12 12 12 12 11 11 11 11 11 12 12 13 13 14 15 15 15 16 16 15 15 15 14 14 14 13 13 13 12 12 12 12 12 11 11 11 11 12
11 11 10 10 11 12 12 12 12 12 12 12 12 12 12 12 12 13 13 14 15 15 15 16 16 15 15 15 15 14 14 13 13 12 12 12 12 11 11 11 11 11 11 11
11 10 9 9 11 11 12 12 12 12 12 12 12 12 12 12 12 13 13 14 14 15 15 16 16 16 15 15 15 15 14 14 13 13 12 12 11 11 11 11 11 11 11 11
Wind_Speed
2 2 3 6 6 5 4 4 7 6 3 3 6 9 11 9 6 7 7 5 6 6 5 5 11 14 15 14 14 14 13 13 11 9 8 7 7 6 6 5 7 8 9 10
3 3 8 6 3 3 3 4 5 5 4 4 7 10 10 9 6 7 7 7 7 6 4 1 6 10 13 14 13 13 12 12 12 10 8 5 5 4 4 4 4 7 8 9
4 7 5 4 4 4 4 4 5 5 4 4 5 9 8 7 6 7 6 7 7 7 6 5 7 9 11 11 12 12 11 11 10 9 6 5 4 3 2 3 4 4 6 7
5 5 3 4 5 6 6 6 5 3 1 4 2 6 9 7 9 9 8 6 6 7 6 6 8 10 10 10 10 11 10 10 9 9 9 9 6 6 6 5 4 5 5 5
6 4 3 4 7 5 6 4 3 2 1 3 3 3 8 8 11 14 13 8 5 5 8 9 9 11 10 10 9 10 10 9 8 8 10 9 6 5 4 4 5 5 5 5
6 5 1 3 4 1 1 4 5 5 4 2 5 4 5 7 12 17 17 14 8 2 4 7 9 10 9 9 9 10 11 8 8 8 8 8 8 6 5 5 6 5 4 4
8 7 6 7 9 8 6 5 4 5 2 5 3 2 1 7 12 15 18 18 12 6 2 3 7 9 9 10 9 9 10 8 7 7 7 7 8 7 7 6 6 5 4 4
7 7 7 8 6 5 3 3 3 4 4 4 3 1 2 8 12 15 16 17 17 13 8 5 5 6 7 7 6 7 8 7 7 7 6 6 6 5 4 5 5 6 5 5
6 7 8 9 8 4 5 2 2 3 2 3 4 0 2 14 18 19 20 19 18 15 12 10 7 4 4 5 5 6 6 6 6 6 5 5 6 6 5 5 4 4 4 4
3 6 6 8 8 8 3 1 4 2 1 3 3 4 7 15 17 19 19 18 15 12 11 10 8 6 5 2 1 3 5 6 5 6 5 5 6 6 5 5 5 5 5 4
5 3 8 7 6 5 5 4 2 1 1 1 1 2 6 10 12 14 15 14 12 10 8 7 6 4 3 3 3 4 4 5 5 5 5 5 5 5 5 4 5 5 4 5
5 3 4 6 4 4 4 2 1 2 0 0 1 1 6 9 10 11 12 12 11 9 6 4 4 5 5 4 4 4 3 4 5 5 5 5 5 4 5 5 4 5 5 5
4 5 5 9 7 7 5 5 3 1 2 1 2 2 7 8 10 11 11 11 9 7 4 2 4 5 6 5 5 4 3 3 3 3 4 3 3 4 4 5 5 5 5 4
4 4 2 3 5 4 6 9 7 2 2 2 3 3 10 14 14 14 12 10 8 7 5 2 3 5 5 5 5 5 5 3 3 3 3 2 2 3 4 4 4 5 5 5
4 3 3 4 8 9 12 14 13 10 5 4 4 5 11 14 12 13 13 13 12 12 10 7 4 3 3 4 5 5 4 2 1 2 3 3 2 2 3 3 3 3 3 4
5 3 3 5 8 13 16 18 15 12 10 8 7 7 12 13 11 13 15 16 15 13 12 10 8 7 6 5 5 5 5 4 4 3 2 2 1 1 2 3 3 2 3 3
4 3 3 2 2 3 10 12 10 9 10 8 8 9 14 14 14 12 13 14 13 12 11 10 9 7 7 6 5 7 7 7 8 6 4 3 2 0 2 2 1 2 3 3
2 3 3 2 4 6 2 4 5 4 7 10 9 11 13 15 12 6 9 12 12 11 9 9 8 8 7 7 7 7 9 9 9 8 7 5 3 2 2 1 0 2 2 2
4 3 4 3 3 2 2 4 4 3 2 8 11 13 15 16 8 5 11 15 11 8 6 5 6 6 6 7 7 8 9 8 8 7 6 6 5 5 5 4 3 2 1 1
7 7 5 4 3 1 4 8 7 3 1 6 10 12 14 13 9 9 16 17 13 9 5 5 5 6 7 6 6 8 7 7 6 5 5 5 5 5 5 4 3 2 1 1
6 6 5 4 2 2 4 7 5 3 5 9 7 8 9 6 6 12 17 14 10 7 3 3 5 4 3 3 6 7 6 5 3 3 5 6 5 5 5 4 4 3 3 2
2 2 2 2 2 3 4 3 3 3 5 5 6 6 8 9 12 12 13 12 11 7 4 1 2 1 1 2 4 5 4 4 3 4 5 5 6 5 5 6 6 6 5 5
4 6 5 5 5 5 2 3 4 4 4 5 5 8 8 9 10 12 11 12 10 7 5 2 1 1 1 0 2 2 3 3 4 5 4 4 5 6 6 6 7 6 6 5
3 3 3 1 3 4 4 2 2 3 5 6 7 9 8 8 10 12 11 10 10 8 6 3 1 1 2 2 1 0 2 3 5 5 3 3 4 5 6 6 6 6 6 6
7 4 3 2 3 2 2 2 3 4 6 7 7 7 7 8 9 8 8 10 9 7 6 4 2 2 4 4 3 2 1 4 5 4 2 2 3 4 5 5 6 5 5 4
6 7 7 6 6 5 5 5 4 4 6 7 7 7 8 7 8 8 8 8 8 8 7 6 5 3 4 4 5 4 2 4 4 3 1 1 1 1 2 3 3 7 7 9
Wind_Direction
245 105 244 240 208 208 232 254 272 271 282 302 277 278 283 285 284 283 286 286 276 269 266 216 190 182 176 176 174 175 173 172 168 168 168 171 180 183 188 194 185 181 183 182
25 251 240 231 215 217 239 271 282 285 292 294 282 280 275 269 259 253 258 255 249 252 271 187 157 162 164 170 172 170 169 168 170 174 170 166 158 160 175 187 186 183 178 182
241 248 243 228 239 251 259 238 241 263 315 335 321 304 298 302 313 310 283 252 233 231 214 165 139 143 144 150 160 167 163 163 164 156 135 117 97 88 125 189 201 195 186 186
275 265 251 247 251 229 249 237 215 225 341 298 346 300 299 312 331 334 321 291 240 218 191 154 137 129 129 135 142 146 147 151 154 149 153 156 164 177 195 188 194 195 188 186
282 284 274 263 256 224 224 222 198 196 166 300 283 235 295 345 348 339 332 317 273 212 179 160 144 129 125 131 136 137 137 142 152 155 162 165 172 182 174 170 184 196 197 193
274 300 344 299 308 36 95 51 33 46 74 297 252 205 311 1 349 347 348 348 337 296 178 155 136 127 128 128 129 132 134 140 148 151 158 166 173 177 175 185 190 196 199 197
339 354 16 19 10 4 30 60 12 346 355 253 265 180 14 0 4 3 0 359 -0 6 32 118 121 123 127 130 133 135 136 143 151 154 164 175 179 182 189 191 192 189 194 199
8 329 358 11 6 319 317 133 178 232 244 282 311 208 96 10 6 7 8 10 16 18 27 52 90 107 114 118 133 141 145 153 160 165 178 185 182 182 192 192 187 194 200 205
2 306 334 0 1 10 356 338 221 180 252 273 279 348 28 2 5 5 5 8 11 10 19 23 32 58 111 130 152 155 158 168 173 175 184 193 188 185 192 195 190 196 201 200
31 303 321 347 14 20 24 20 53 82 224 260 315 29 355 347 347 350 352 355 357 2 10 15 15 13 11 8 198 169 171 182 186 180 183 184 183 182 185 181 190 196 196 187
39 14 327 355 8 346 12 34 44 95 144 167 336 22 354 330 331 335 336 335 336 352 1 1 353 349 337 312 276 240 206 196 194 188 179 165 170 171 169 174 190 188 182 178
358 75 328 314 318 5 58 43 83 130 101 108 130 352 336 324 324 332 331 334 336 337 337 325 303 283 274 266 266 268 245 218 212 198 179 173 169 165 172 183 187 178 180 188
10 57 0 344 344 357 18 7 354 167 137 137 126 351 338 338 342 341 339 335 332 334 322 281 257 264 274 281 292 300 299 259 238 194 177 180 173 177 194 198 196 187 186 190
64 68 74 324 318 347 4 9 8 62 100 90 76 26 351 357 354 352 351 347 347 349 352 334 263 262 277 294 309 310 305 275 224 185 162 186 229 224 226 213 203 199 188 185
61 35 356 55 70 63 47 34 36 49 52 79 73 31 355 347 348 354 2 12 22 22 20 16 357 332 332 339 343 338 325 310 204 163 162 194 229 259 264 251 227 214 201 196
29 19 23 67 84 67 48 30 30 35 37 47 40 20 349 342 351 7 12 17 22 19 21 23 28 36 33 28 19 14 21 31 84 111 135 161 149 250 263 256 245 221 217 209
350 25 46 16 333 45 38 11 18 37 31 22 21 348 338 345 349 359 5 8 13 13 16 22 30 42 45 47 48 41 37 47 60 64 55 47 48 338 274 267 249 242 226 209
359 37 83 51 36 55 320 297 333 19 39 22 1 345 346 337 318 320 2 1 359 1 9 18 28 41 45 53 55 57 54 54 55 51 44 37 34 5 344 20 18 262 231 204
58 86 74 66 73 89 336 330 330 306 13 13 353 346 347 342 338 339 352 352 345 348 0 22 39 56 55 52 55 59 51 50 52 46 37 28 29 28 24 18 351 313 290 250
39 59 76 63 78 64 294 304 307 215 280 356 346 342 343 353 8 333 330 332 333 342 359 30 41 53 53 45 55 58 46 41 37 31 28 26 35 42 31 14 360 347 342 310
13 21 44 59 81 273 275 307 1 75 298 313 318 321 328 331 287 292 310 319 322 328 347 54 59 60 59 63 65 55 39 22 -0 23 35 33 31 40 32 17 4 357 2 9
122 69 32 62 48 273 302 36 61 247 265 286 298 302 305 301 300 307 315 321 325 326 327 57 84 70 31 91 77 51 13 340 4 41 44 39 32 32 31 26 19 17 21 30
170 181 185 185 212 227 189 167 215 226 271 282 285 292 297 303 308 315 317 321 321 316 315 301 189 207 288 224 107 54 341 356 46 62 57 52 48 39 32 33 26 22 21 27
252 170 135 173 219 185 175 201 249 253 263 275 282 288 294 298 305 312 316 322 325 323 315 312 291 236 265 254 225 225 2 51 82 81 73 65 62 51 40 36 31 32 24 20
214 175 154 204 219 176 258 271 273 286 292 294 297 292 291 298 305 309 316 322 327 321 317 314 294 253 252 241 232 241 108 93 96 100 88 70 72 78 65 53 38 33 32 22
200 170 171 206 208 186 236 255 268 293 300 300 308 312 313 309 309 315 317 318 323 324 319 316 302 271 255 231 226 231 188 130 122 120 110 96 101 102 106 97 64 39 40 38
Height
1497 1502 1506 1503 1500 1501 1502 1505 1506 1500 1493 1493 1493 1490 1483 1478 1477 1476 1474 1473 1474 1473 1473 1474 1475 1478 1481 1485 1488 1491 1494 1497 1500 1503 1506 1508 1510 1512 1515 1517 1519 1521 1523 1525
1502 1504 1497 1494 1494 1496 1499 1503 1504 1498 1493 1492 1493 1489 1480 1476 1474 1473 1471 1470 1470 1470 1470 1471 1472 1474 1477 1481 1485 1488 1492 1495 1497 1500 1503 1506 1508 1511 1513 1515 1517 1518 1520 1522
1503 1498 1491 1492 1494 1496 1498 1501 1501 1500 1494 1492 1495 1493 1483 1475 1473 1470 1468 1466 1466 1467 1467 1468 1469 1471 1474 1478 1482 1486 1489 1493 1496 1498 1501 1504 1506 1508 1510 1511 1513 1515 1517 1519
1498 1492 1491 1493 1494 1493 1500 1492 1493 1495 1502 1508 1502 1512 1491 1481 1476 1471 1467 1464 1462 1463 1464 1466 1468 1470 1473 1477 1481 1485 1488 1491 1494 1497 1499 1501 1503 1504 1506 1508 1510 1512 1514 1516
1500 1493 1493 1495 1492 1489 1492 1488 1491 1494 1501 1508 1505 1510 1499 1487 1484 1477 1470 1464 1460 1460 1461 1464 1466 1469 1473 1477 1481 1484 1487 1490 1492 1495 1497 1499 1500 1502 1504 1505 1507 1508 1510 1512
1496 1491 1492 1493 1488 1487 1488 1492 1496 1502 1508 1518 1506 1510 1508 1500 1494 1484 1474 1467 1461 1460 1461 1462 1465 1468 1472 1476 1480 1482 1485 1488 1490 1493 1494 1496 1498 1499 1501 1502 1503 1505 1507 1508
1505 1497 1495 1493 1493 1492 1494 1506 1518 1519 1523 1519 1501 1505 1510 1501 1494 1488 1481 1472 1465 1462 1463 1464 1465 1467 1471 1475 1480 1483 1484 1487 1489 1491 1492 1494 1495 1497 1498 1499 1501 1502 1504 1505
1520 1516 1502 1498 1500 1502 1500 1505 1520 1527 1526 1516 1502 1505 1506 1499 1494 1488 1482 1476 1469 1466 1466 1467 1467 1469 1472 1476 1480 1482 1484 1486 1488 1489 1491 1492 1494 1495 1497 1498 1499 1500 1501 1502
1524 1520 1505 1501 1500 1500 1504 1507 1506 1514 1515 1517 1510 1503 1500 1495 1491 1488 1485 1479 1475 1473 1472 1471 1471 1472 1474 1477 1480 1482 1484 1485 1487 1488 1490 1491 1493 1494 1495 1496 1497 1498 1499 1500
1520 1524 1513 1506 1503 1503 1505 1507 1513 1517 1521 1522 1514 1513 1514 1505 1499 1492 1488 1484 1481 1478 1476 1476 1475 1476 1477 1479 1481 1483 1484 1485 1487 1488 1489 1490 1492 1493 1494 1495 1496 1497 1497 1498
1520 1527 1523 1515 1515 1515 1511 1513 1515 1518 1518 1522 1524 1522 1513 1510 1504 1498 1493 1489 1484 1480 1478 1478 1478 1478 1479 1480 1482 1483 1484 1485 1487 1488 1489 1490 1491 1492 1493 1494 1495 1495 1496 1496
1522 1529 1532 1523 1515 1511 1512 1514 1516 1523 1522 1521 1524 1526 1513 1510 1505 1500 1495 1489 1484 1481 1479 1479 1479 1478 1479 1480 1481 1482 1483 1485 1487 1488 1489 1489 1490 1491 1492 1493 1493 1494 1495 1495
1524 1532 1539 1533 1527 1520 1518 1516 1515 1517 1520 1522 1525 1527 1513 1510 1505 1501 1495 1490 1485 1482 1480 1479 1479 1477 1478 1479 1480 1481 1482 1484 1486 1487 1488 1489 1489 1490 1491 1491 1492 1493 1493 1494
1523 1532 1538 1543 1536 1529 1526 1521 1515 1516 1521 1522 1523 1523 1517 1511 1507 1502 1496 1491 1487 1483 1481 1479 1478 1477 1478 1479 1481 1481 1482 1483 1484 1486 1487 1488 1489 1489 1490 1490 1491 1491 1492 1492
1527 1534 1532 1531 1530 1529 1528 1524 1520 1518 1519 1522 1525 1524 1522 1516 1511 1505 1500 1494 1489 1486 1484 1482 1480 1479 1480 1481 1481 1481 1481 1481 1482 1484 1485 1485 1486 1487 1487 1489 1489 1490 1491 1491
1530 1534 1533 1534 1533 1531 1531 1530 1526 1525 1525 1525 1525 1526 1523 1518 1512 1507 1502 1497 1494 1491 1489 1486 1484 1483 1483 1483 1484 1482 1481 1481 1481 1481 1482 1483 1484 1484 1485 1487 1487 1488 1489 1489
1533 1535 1538 1541 1535 1533 1540 1541 1537 1536 1535 1532 1533 1533 1525 1519 1515 1511 1507 1503 1500 1496 1493 1491 1488 1487 1487 1486 1485 1483 1482 1481 1480 1480 1481 1481 1482 1482 1483 1483 1484 1485 1486 1486
1534 1536 1542 1543 1541 1548 1552 1543 1541 1539 1538 1537 1535 1532 1527 1522 1516 1513 1510 1506 1503 1500 1497 1495 1493 1491 1490 1489 1487 1486 1484 1482 1481 1480 1480 1480 1480 1480 1480 1481 1481 1481 1482 1483
1533 1536 1544 1547 1548 1549 1546 1542 1542 1541 1540 1539 1536 1531 1527 1522 1515 1512 1510 1508 1505 1503 1501 1499 1497 1495 1493 1491 1490 1487 1485 1484 1482 1481 1481 1480 1479 1478 1478 1477 1477 1477 1478 1478
1536 1539 1546 1550 1551 1554 1551 1542 1538 1541 1541 1539 1536 1533 1529 1524 1522 1518 1512 1508 1506 1505 1503 1501 1499 1497 1495 1493 1491 1489 1487 1485 1484 1483 1481 1480 1479 1477 1476 1475 1474 1474 1474 1474
1546 1548 1552 1553 1552 1552 1546 1541 1539 1547 1548 1540 1537 1534 1531 1528 1527 1521 1515 1511 1508 1506 1505 1503 1501 1499 1497 1495 1493 1491 1489 1487 1486 1484 1483 1481 1479 1477 1476 1474 1473 1472 1471 1471
1550 1552 1553 1554 1555 1555 1543 1542 1545 1546 1541 1539 1536 1533 1530 1527 1523 1519 1515 1512 1509 1507 1505 1504 1502 1500 1499 1497 1495 1493 1490 1489 1487 1486 1484 1481 1479 1477 1475 1474 1472 1471 1470 1469
1546 1547 1549 1550 1552 1544 1542 1542 1542 1541 1539 1537 1534 1531 1529 1525 1521 1518 1514 1511 1509 1507 1505 1504 1502 1501 1500 1498 1496 1494 1492 1490 1488 1487 1485 1482 1480 1478 1476 1474 1472 1471 1469 1469
1542 1540 1543 1544 1543 1541 1541 1541 1540 1539 1537 1535 1533 1530 1527 1524 1521 1517 1514 1511 1508 1506 1505 1503 1502 1501 1500 1498 1497 1495 1493 1491 1490 1488 1486 1484 1482 1480 1477 1475 1473 1471 1470 1469
1538 1538 1541 1542 1540 1540 1539 1539 1538 1537 1535 1533 1531 1529 1526 1523 1520 1517 1514 1511 1508 1506 1504 1503 1501 1500 1499 1498 1497 1496 1494 1492 1490 1489 1487 1485 1484 1481 1479 1477 1475 1473 1472 1471
1531 1534 1538 1539 1536 1537 1537 1537 1536 1535 1534 1532 1529 1527 1525 1522 1519 1516 1513 1511 1508 1505 1504 1502 1501 1500 1499 1498 1497 1496 1494 1493 1491 1489 1488 1486 1485 1483 1481 1479 1478 1476 1474 1473